Skip Page Navigation
NASA JPL Caltech
NASA Logo - Jet Propulsion Laboratory + View the NASA Portal
+ Center for Near-Earth Object Studies
JPL Home Earth Solar System Stars & Galaxies Technology
JPL Solar System Dynamics
BODIES ORBITS EPHEMERIDES TOOLS PHYSICAL DATA DISCOVERY FAQ SITE MAP
JPL Small-Body Database Browser
Search: [ help ]  
43124 (1999 XJ53)
Classification: Main-belt Asteroid          SPK-ID: 2043124
Ephemeris | Orbit Diagram | Orbital Elements | Mission Design | Physical Parameters | Discovery Circumstances ]

[ show orbit diagram ]
Orbital Elements at Epoch 2459396.5 (2021-Jul-01.0) TDB
Reference: JPL 28 (heliocentric ecliptic J2000)
 Element Value Uncertainty (1-sigma)   Units 
e .08242238813702793 4.2576e-08  
a 2.780697849768245 1.4136e-08 au
q 2.551506092302848 1.1932e-07 au
i 1.801086525372 3.3771e-06 deg
node 101.2108960941708 0.00014816 deg
peri 244.9720186065769 0.00014956 deg
M 305.2137597537122 2.2485e-05 deg
tp 2459654.249674376629
(2022-Mar-15.74967438)
0.00010639 TDB
period 1693.671300648774
4.64
1.2915e-05
3.536e-08
d
yr
n .2125560017826949 1.6208e-09 deg/d
Q 3.009889607233642 1.5301e-08 au
  Orbit Determination Parameters
   # obs. used (total)      943  
   data-arc span      8404 days (23.01 yr)  
   first obs. used      1998-07-03  
   last obs. used      2021-07-06  
   planetary ephem.      DE441  
   SB-pert. ephem.      SB441-N16  
   condition code      0  
   norm. resid. RMS      .54374  
   source      ORB  
   producer      Otto Matic  
   solution date      2021-Jul-09 14:19:40  

Additional Information
 Earth MOID = 1.54399 au 
 Jupiter MOID = 2.31673 au 
 T_jup = 3.328 
[ show covariance matrix ]

Ephemeris | Orbit Diagram | Orbital Elements | Mission Design | Physical Parameters | Discovery Circumstances ]

Physical Parameter Table
Parameter Symbol Value Units Sigma Reference Notes
absolute magnitude H 15.02   n/a E2021B10  
diameter diameter 6.373 km 0.242 urn:nasa:pds:neowise_diameters_albedos::2.0[mainbelt] (http://adsabs.harvard.edu/abs/2011ApJ...741...68M)  
geometric albedo albedo 0.052   0.009 urn:nasa:pds:neowise_diameters_albedos::2.0[mainbelt] (http://adsabs.harvard.edu/abs/2011ApJ...741...68M)  

43124 (1999 XJ53)          Discovered 1999-Dec-07 by LINEAR at Socorro
Reference: 20020624/Numbers.arcLast Updated: 2004-04-19

Alternate Designations
 1999 XJ53 = 2001 DN43 
Ephemeris | Orbit Diagram | Orbital Elements | Mission Design | Physical Parameters | Discovery Circumstances ]
ABOUT SSD CREDITS/AWARDS PRIVACY/COPYRIGHT GLOSSARY LINKS
FirstGov 2021-Jul-23 22:43 UT
(server date/time)  
NASA Home Page
Site Manager:   Ryan S. Park
Webmaster  Alan B. Chamberlin